Location: Unspecified
(48.8656°N, 0.0000°E)
Time: 10:59:44
(UTC+00:00)

Altair - Pass Details

Date: 20 June 2019
Orbit: 1501 x 1683 km, 47.2° (Epoch: 16 August)

Event Time Altitude Azimuth Distance (km) Brightness Sun altitude
Rises 01:53:09 0° 287° (WNW) 4,851 10.0 -13.5°
Reaches altitude 10° 01:56:19 10° 283° (WNW) 3,884 9.5 -13.3°
Maximum altitude 02:05:55 54° 210° (SSW) 1,961 7.7 -12.5°
Drops below altitude 10° 02:15:39 10° 137° (SE) 3,940 9.5 -11.7°
Sets 02:18:54 0° 133° (SE) 4,924 10.0 -11.5°
